Temp
-2 -2 -2 -2 -2 -2 -1 -0 0 0 1 1 1 1 -0 -1 -1 -1 -1 -2 -2 -2 -1 -1 -1 -1 -1 -1 -1 0 0 -0 -1 -0 2 5 7 5 6 5 6 7 7
-4 -3 -3 -2 -2 -2 -2 -1 -1 -0 0 1 1 0 -0 -1 -2 -2 -2 -3 -3 -3 -3 -3 -3 -3 -3 -3 -3 -3 -3 -2 -3 -4 -3 -1 2 5 5 3 4 3 4
-2 -3 -4 -3 -3 -3 -2 -2 -2 -1 -1 -1 -0 -0 -0 -1 -1 -1 -2 -2 -2 -2 -2 -3 -3 -3 -3 -4 -5 -5 -5 -5 -3 -4 -3 -3 -3 -3 0 1 2 1 2
-2 -2 -3 -4 -3 -3 -3 -3 -3 -2 -2 -2 -1 -1 -2 -3 -4 -3 -3 -3 -2 -2 -2 -3 -3 -3 -3 -4 -5 -5 -5 -5 -6 -4 -4 -5 -4 -3 -3 -1 -1 -1 -1
-2 -3 -3 -3 -3 -3 -3 -4 -3 -3 -3 -3 -3 -3 -3 -4 -4 -3 -3 -2 -2 -2 -3 -3 -3 -3 -4 -4 -4 -5 -5 -5 -6 -6 -6 -6 -5 -4 -4 -4 -3 -3 -3
-4 -3 -3 -3 -4 -4 -4 -4 -4 -4 -4 -4 -3 -3 -4 -4 -4 -3 -3 -3 -3 -4 -4 -4 -4 -4 -4 -5 -5 -5 -6 -6 -6 -6 -6 -6 -6 -5 -6 -5 -5 -5 -3
-5 -5 -5 -5 -5 -5 -5 -5 -5 -5 -5 -5 -5 -6 -6 -6 -6 -6 -6 -5 -5 -5 -6 -6 -5 -5 -5 -5 -5 -6 -6 -6 -7 -7 -7 -7 -7 -7 -6 -6 -5 -5 -5
-6 -6 -5 -5 -5 -6 -6 -6 -6 -6 -7 -7 -7 -7 -7 -7 -7 -7 -7 -6 -7 -7 -6 -7 -7 -6 -6 -6 -6 -6 -6 -7 -7 -7 -7 -7 -7 -7 -7 -7 -6 -5 -5
-9 -9 -5 -5 -6 -6 -7 -7 -7 -7 -7 -7 -7 -7 -7 -7 -7 -8 -8 -8 -8 -8 -8 -8 -7 -7 -7 -7 -7 -7 -7 -7 -7 -7 -7 -7 -7 -7 -7 -7 -7 -6 -6
-11 -11 -7 -7 -7 -7 -7 -8 -8 -8 -8 -8 -8 -8 -9 -9 -9 -9 -9 -9 -9 -9 -9 -8 -8 -8 -8 -8 -8 -8 -7 -8 -8 -8 -8 -8 -8 -8 -8 -8 -8 -7 -7
-11 -12 -9 -9 -8 -8 -8 -8 -8 -9 -9 -9 -9 -9 -9 -10 -10 -10 -10 -10 -10 -10 -10 -10 -9 -9 -9 -9 -9 -9 -9 -9 -9 -9 -9 -8 -8 -8 -8 -8 -8 -8 -7
-11 -13 -11 -10 -9 -9 -9 -9 -9 -9 -10 -10 -10 -11 -11 -11 -11 -11 -11 -11 -11 -11 -11 -11 -11 -10 -10 -10 -10 -10 -10 -10 -10 -9 -10 -9 -9 -9 -8 -8 -8 -8 -8
-11 -12 -12 -11 -10 -10 -10 -10 -10 -10 -11 -11 -11 -11 -11 -11 -11 -12 -12 -12 -12 -11 -11 -12 -11 -11 -11 -11 -11 -11 -11 -11 -10 -10 -10 -10 -10 -9 -9 -9 -9 -8 -8
-8 -11 -12 -11 -11 -10 -11 -11 -11 -11 -11 -11 -12 -12 -12 -12 -13 -13 -13 -12 -12 -13 -12 -12 -12 -12 -12 -12 -12 -11 -11 -10 -10 -10 -10 -9 -9 -9 -9 -8 -8 -8 -7
-8 -10 -12 -11 -11 -11 -11 -11 -11 -11 -11 -12 -12 -12 -12 -13 -13 -13 -13 -13 -13 -13 -13 -13 -13 -13 -13 -12 -11 -11 -10 -10 -9 -9 -9 -9 -8 -7 -6 -6 -6 -6 -6
-10 -10 -11 -11 -11 -11 -11 -11 -11 -11 -12 -12 -12 -12 -12 -13 -13 -13 -13 -14 -14 -13 -14 -14 -14 -14 -13 -12 -11 -10 -10 -9 -9 -9 -9 -8 -8 -8 -7 -6 -6 -5 -5
-13 -13 -13 -12 -12 -11 -11 -11 -11 -12 -12 -12 -12 -12 -12 -13 -13 -13 -14 -14 -14 -14 -14 -14 -14 -14 -14 -13 -11 -10 -9 -9 -9 -9 -9 -9 -9 -8 -8 -8 -7 -7 -6
-16 -15 -13 -12 -12 -12 -12 -12 -12 -12 -12 -12 -12 -13 -13 -13 -13 -13 -14 -14 -14 -14 -15 -15 -15 -15 -14 -13 -11 -10 -9 -9 -9 -10 -10 -10 -9 -9 -8 -8 -7 -7 -7
-14 -13 -12 -13 -12 -12 -12 -13 -13 -13 -13 -13 -13 -13 -12 -13 -13 -13 -13 -14 -14 -14 -15 -15 -15 -15 -14 -13 -12 -11 -10 -10 -10 -10 -10 -9 -9 -9 -7 -7 -7 -7 -6
-12 -12 -12 -12 -13 -13 -13 -13 -13 -13 -13 -13 -13 -13 -13 -13 -14 -13 -14 -14 -14 -15 -15 -15 -15 -15 -14 -14 -13 -12 -11 -11 -10 -10 -9 -9 -8 -7 -6 -6 -6 -6 -6
-13 -13 -14 -14 -13 -13 -13 -14 -14 -14 -13 -14 -14 -14 -14 -14 -14 -14 -14 -14 -15 -15 -15 -16 -16 -16 -15 -14 -13 -12 -11 -10 -10 -9 -9 -9 -8 -7 -6 -6 -6 -6 -6
-14 -14 -14 -15 -14 -14 -15 -15 -15 -14 -14 -15 -15 -15 -14 -15 -15 -15 -15 -15 -16 -16 -16 -17 -16 -16 -15 -15 -13 -12 -10 -10 -9 -9 -9 -9 -8 -7 -7 -6 -6 -5 -5
-14 -14 -14 -15 -15 -15 -15 -16 -15 -15 -15 -15 -15 -15 -15 -15 -15 -16 -16 -16 -16 -17 -17 -18 -18 -17 -15 -14 -13 -12 -11 -10 -9 -9 -9 -8 -8 -7 -7 -7 -7 -6 -6
-14 -14 -14 -15 -15 -15 -15 -15 -15 -16 -16 -16 -16 -16 -16 -16 -16 -16 -16 -16 -17 -18 -18 -19 -18 -17 -16 -14 -13 -13 -11 -11 -11 -10 -9 -9 -8 -7 -8 -7 -8 -8 -8
-14 -15 -15 -15 -15 -15 -16 -16 -16 -16 -17 -17 -17 -17 -17 -17 -17 -17 -17 -17 -17 -17 -18 -17 -16 -16 -16 -12 -12 -12 -11 -10 -10 -9 -9 -9 -10 -9 -9 -9 -9 -9 -9
-15 -16 -16 -16 -16 -16 -16 -17 -17 -17 -17 -17 -17 -17 -17 -18 -18 -18 -18 -17 -16 -14 -13 -13 -12 -12 -12 -11 -10 -10 -10 -10 -9 -9 -10 -11 -11 -11 -11 -11 -10 -10 -10
Height
875 877 878 879 881 882 882 883 883 884 885 886 887 887 887 888 887 888 888 887 886 885 884 882 881 879 878 876 873 871 867 864 860 853 846 844 844 841 841 841 839 837 836
873 876 877 878 880 881 882 882 883 883 884 884 885 886 887 888 889 890 889 888 887 886 884 882 880 879 877 876 874 872 870 868 865 863 858 851 843 840 840 841 840 839 838
868 873 876 878 880 881 882 883 883 884 884 884 885 885 886 887 888 887 887 887 886 886 884 883 882 880 878 877 877 875 873 871 869 868 869 864 863 853 841 841 841 840 838
866 870 874 877 879 881 882 883 884 885 884 884 884 884 885 886 888 888 888 888 887 886 885 884 882 881 880 879 878 877 876 874 872 870 871 872 871 864 849 842 842 841 839
862 867 871 875 878 880 881 883 884 884 885 884 884 885 886 888 888 888 888 887 887 886 885 884 883 881 880 879 878 877 876 875 874 872 870 869 867 864 863 849 841 840 839
863 867 871 875 878 880 882 883 883 883 884 885 885 886 887 888 887 887 886 885 885 885 885 884 883 881 880 878 876 875 875 874 872 871 869 869 868 863 862 854 848 843 836
861 866 870 874 878 880 881 882 883 884 885 886 887 887 888 888 887 887 886 885 884 884 884 883 881 879 878 876 874 873 872 871 869 868 866 864 863 861 858 854 848 842 836
865 868 872 875 877 879 881 883 884 885 886 886 886 887 887 887 886 886 885 885 885 883 882 881 879 878 875 873 871 870 869 868 866 864 862 860 858 856 855 853 850 841 837
865 868 871 875 878 880 882 883 883 884 885 885 884 884 884 885 884 884 883 883 882 881 880 878 876 874 872 870 868 866 865 864 862 860 857 855 853 851 850 848 847 844 834
865 866 868 872 876 879 880 881 883 883 883 883 882 882 882 883 883 881 880 880 878 877 875 873 872 870 868 866 865 863 861 859 857 856 854 851 849 847 845 843 842 840 836
867 868 869 871 874 877 880 880 881 881 881 881 882 882 881 879 879 878 877 875 874 872 870 868 866 865 863 861 860 858 855 854 851 851 849 845 844 842 840 838 836 833 831
868 868 869 871 874 876 878 878 879 880 880 880 879 879 877 876 874 873 872 870 868 867 865 863 861 860 858 856 855 852 851 848 846 844 843 840 839 836 834 833 829 826 824
868 869 871 872 874 875 876 877 878 877 877 877 875 874 872 871 870 868 866 865 863 861 859 858 856 854 853 851 849 847 844 843 841 839 837 834 833 829 828 827 823 819 816
867 870 871 871 872 874 875 875 875 874 873 872 872 870 868 867 865 863 861 859 857 855 854 852 850 849 847 846 844 842 840 837 834 832 829 826 825 823 821 819 815 810 808
865 867 869 870 871 871 872 871 870 869 869 868 866 864 863 861 859 857 855 853 852 850 848 846 845 843 841 840 838 837 834 831 827 824 822 820 819 816 813 810 805 804 800
866 866 867 867 867 868 867 866 865 864 863 862 860 859 857 856 854 852 850 848 846 844 842 840 838 836 834 833 832 830 826 823 820 817 815 813 810 808 805 801 798 796 791
865 864 863 863 863 863 862 860 859 858 857 855 853 852 851 849 847 845 844 842 840 838 836 833 831 828 826 825 824 822 819 816 813 811 808 804 802 800 796 792 789 785 782
860 858 858 858 858 858 856 854 853 851 850 848 846 845 843 841 839 838 836 835 834 832 830 827 824 821 819 818 817 815 812 808 805 803 800 797 792 789 787 783 778 773 769
852 851 852 851 850 849 847 845 844 843 841 838 837 836 835 833 831 829 829 828 826 824 822 820 817 814 811 811 810 808 805 800 797 795 792 789 784 780 778 773 768 762 756
846 845 845 843 841 839 839 836 833 833 830 828 827 827 826 824 823 821 821 820 818 816 815 813 811 807 804 803 802 801 798 792 789 785 782 779 775 770 766 762 758 752 745
839 838 836 833 831 830 829 827 825 823 821 820 818 817 816 815 814 813 813 811 810 808 806 803 801 798 796 792 792 791 788 785 781 776 771 768 765 760 756 752 748 742 737
831 829 826 824 822 821 820 817 815 813 813 811 810 808 807 807 806 805 804 803 803 800 797 795 791 789 786 784 783 782 779 776 772 767 763 758 755 751 746 741 736 730 726
823 821 818 814 813 812 811 808 803 805 804 803 801 799 799 798 798 797 795 795 794 792 788 787 784 780 778 776 774 774 771 767 763 759 754 748 744 739 734 731 728 723 718
814 812 810 806 803 802 802 799 797 797 796 793 792 791 790 789 789 788 787 786 785 783 781 779 777 773 769 767 765 762 759 756 753 749 744 740 735 731 727 723 719 716 711
804 803 800 797 794 794 792 791 790 789 787 785 783 782 782 781 780 779 779 777 775 775 772 769 767 764 760 757 755 752 749 747 744 739 735 731 727 724 720 716 712 707 703
795 793 791 789 786 785 783 782 781 781 779 777 776 775 774 773 772 771 768 769 768 766 763 759 757 754 751 748 746 744 741 739 736 731 727 725 722 718 714 709 704 699 694
Wind_Speed
12 15 14 14 14 13 13 13 14 14 11 9 7 9 13 15 18 19 18 19 19 18 20 20 20 21 23 23 24 26 28 28 35 25 26 18 17 7 16 27 21 22 23
8 15 15 14 12 13 11 11 12 12 12 11 10 8 7 8 12 15 16 17 18 18 18 20 20 21 23 24 24 26 26 22 27 16 9 5 10 10 38 19 27 30 31
13 11 15 13 12 11 10 9 9 10 11 10 9 8 6 5 8 16 17 18 17 18 18 18 18 18 20 21 19 20 21 20 20 14 12 4 3 19 7 24 27 28 34
11 14 14 15 14 11 9 8 8 7 8 8 9 11 11 10 11 14 14 14 15 16 17 17 17 17 18 18 18 16 16 16 13 11 12 6 8 3 6 8 26 26 31
13 13 16 17 14 11 9 7 6 6 6 7 8 9 8 8 9 12 13 13 14 15 16 16 17 16 17 17 17 17 15 13 12 11 10 9 12 11 7 8 20 27 25
9 14 17 17 15 11 9 7 4 4 4 5 6 7 8 10 12 14 16 17 17 17 15 16 16 15 17 17 17 16 15 14 12 11 12 9 5 9 9 7 17 24 22
9 10 16 17 15 12 9 5 3 3 3 5 5 6 7 9 12 15 17 20 21 21 20 18 17 17 18 17 17 18 17 17 14 15 16 15 15 14 16 18 19 11 26
6 8 15 17 14 11 8 5 2 0 2 4 6 8 10 12 13 14 16 18 20 21 21 20 19 20 18 18 17 18 19 16 18 20 18 19 19 17 16 15 17 13 14
3 6 13 14 12 10 6 4 1 2 5 7 8 10 11 13 15 16 17 18 19 21 19 22 22 22 20 19 18 20 21 21 21 21 21 20 21 22 20 18 18 18 11
3 4 9 12 11 9 6 2 2 4 7 9 11 13 14 15 16 17 18 19 21 21 22 23 23 23 22 20 19 21 22 23 23 20 20 22 22 23 24 21 20 20 21
1 2 8 10 10 8 5 3 4 6 8 10 12 14 15 16 17 19 20 21 21 22 23 23 24 24 23 22 22 23 22 22 22 23 24 26 23 25 24 23 21 22 22
2 2 7 8 9 7 5 5 6 8 10 12 15 16 17 18 20 21 21 20 22 22 23 22 23 24 24 24 24 25 23 25 26 25 24 26 20 23 24 24 25 24 25
3 3 4 6 8 7 7 7 9 11 14 16 18 20 21 21 21 22 22 22 22 22 22 21 24 24 24 24 24 25 25 25 25 25 25 27 23 26 24 24 26 27 27
1 3 3 6 7 8 9 10 14 16 17 19 20 22 22 22 22 23 23 23 22 23 23 23 23 24 24 21 22 22 24 24 25 25 25 27 25 27 28 28 30 30 30
3 2 3 7 9 11 14 16 19 19 19 20 21 23 22 22 23 24 24 23 22 22 23 22 23 25 23 21 20 21 24 25 27 27 27 28 28 29 31 31 28 30 29
5 4 7 10 14 15 18 20 21 20 19 21 23 23 23 23 24 24 24 23 23 23 23 24 26 25 22 21 23 24 27 27 28 28 26 27 30 33 33 32 33 36 35
7 7 12 14 15 17 19 23 23 22 23 25 26 26 25 26 25 23 23 24 24 24 24 25 25 26 27 24 24 24 26 27 26 27 28 29 29 30 31 35 33 35 36
8 13 17 15 17 21 24 27 26 25 25 27 29 28 27 28 27 25 24 24 24 25 24 24 24 26 26 23 23 24 27 28 28 27 29 30 33 33 31 33 34 37 38
19 22 22 21 26 28 28 29 28 28 27 32 32 28 26 27 28 28 26 26 26 26 26 23 24 24 26 24 24 25 27 28 29 28 29 30 33 33 32 34 35 36 38
19 23 27 31 34 33 30 31 30 30 33 34 30 29 29 29 29 27 27 26 27 26 22 25 25 25 30 28 27 27 27 28 27 28 29 29 30 32 34 34 33 33 36
29 29 30 31 33 33 32 32 33 34 36 34 33 33 30 29 30 29 27 29 27 27 32 33 32 31 29 31 26 25 26 26 26 28 29 28 30 32 34 36 36 36 40
23 25 25 26 30 30 30 31 31 35 34 33 31 30 28 29 28 27 30 28 27 31 33 32 33 31 30 26 25 22 24 27 28 26 29 30 32 34 36 38 38 39 39
25 26 26 28 29 29 28 30 35 32 32 31 31 31 31 29 27 28 29 28 31 28 29 25 25 29 29 27 22 23 24 26 27 27 30 35 35 36 36 35 32 35 32
25 26 25 26 28 28 28 30 32 30 29 31 32 31 31 28 27 27 27 29 30 27 27 23 23 29 30 29 29 26 26 26 27 27 30 32 34 33 27 29 27 26 26
25 25 25 26 28 28 28 28 27 27 27 29 29 28 26 26 28 28 30 29 30 27 27 28 30 29 29 34 28 29 26 23 27 31 27 27 17 21 23 24 24 25 26
25 25 26 27 29 28 29 29 28 28 27 26 24 22 22 21 21 22 24 24 25 26 28 29 29 27 28 30 28 26 28 29 30 29 19 18 20 20 22 23 25 26 27
Wind_Direction
162 156 150 144 135 125 118 107 103 93 104 108 110 72 64 60 54 49 45 42 39 36 34 35 32 29 27 24 19 13 11 11 9 360 348 348 344 299 354 345 354 345 343
159 165 161 156 150 134 122 109 97 90 82 78 72 74 68 56 49 42 40 37 33 32 28 26 27 24 21 20 19 19 13 12 21 8 333 347 342 340 332 344 340 346 338
166 169 168 162 149 139 128 116 100 86 78 73 74 76 74 50 21 18 19 19 16 15 14 14 15 15 15 15 17 14 18 9 9 36 30 345 341 328 323 329 332 342 332
168 164 165 166 161 147 137 120 101 87 70 62 54 48 44 30 8 360 359 0 1 1 359 358 359 1 2 3 6 3 9 7 2 14 3 357 294 321 321 321 329 327 336
169 168 169 170 165 156 146 133 114 91 64 46 38 34 27 8 347 340 339 340 344 345 344 342 342 343 347 348 347 348 352 354 344 345 340 330 312 292 278 307 322 324 327
155 156 167 168 162 160 153 146 138 92 44 20 12 4 350 339 332 330 329 329 330 330 331 329 328 328 331 333 334 333 332 333 325 323 322 314 295 294 296 299 309 307 318
147 149 157 164 166 163 160 151 137 64 18 0 351 344 335 329 328 328 325 322 322 321 322 323 319 320 320 319 319 319 320 322 314 313 310 304 298 282 287 295 302 297 312
148 160 166 173 171 169 164 163 148 101 340 336 333 329 326 322 318 316 313 310 310 309 311 311 309 311 311 311 311 308 309 310 304 304 305 304 300 298 284 278 295 304 298
128 147 172 176 172 172 173 179 201 314 324 324 322 319 317 313 310 306 302 301 301 303 302 300 303 305 305 305 306 303 303 302 302 302 302 299 303 304 295 284 281 288 300
109 118 161 170 177 185 192 208 298 316 320 320 319 315 312 309 304 301 300 299 298 298 298 300 302 302 302 304 303 301 299 298 296 295 293 295 294 295 293 287 282 278 279
288 198 165 172 181 188 200 242 288 308 314 312 309 305 304 304 303 300 298 298 297 297 297 299 299 300 301 302 301 298 297 295 294 292 290 291 295 292 289 287 279 276 276
35 170 173 175 182 195 225 265 288 295 301 303 302 300 301 303 301 299 298 298 297 296 296 296 296 296 298 298 298 297 291 290 290 291 288 286 286 282 283 281 279 276 275
70 104 161 194 207 222 245 271 285 293 298 300 298 300 299 298 297 297 299 298 298 297 296 292 292 295 297 298 295 294 293 289 285 284 283 283 278 278 275 275 276 277 276
125 176 207 230 231 246 266 278 288 294 297 296 293 293 296 297 298 298 297 298 299 297 297 296 295 294 295 290 288 283 281 283 284 283 279 281 279 277 279 277 274 272 273
266 254 218 237 250 265 278 286 290 290 290 287 288 290 294 295 297 298 298 296 295 292 295 293 290 292 291 288 285 283 281 281 282 282 281 280 280 280 279 276 279 282 279
246 250 255 255 265 273 280 285 286 287 287 282 282 284 288 292 293 295 296 294 294 295 297 295 294 292 287 284 284 283 282 280 279 281 283 283 284 281 281 280 279 280 281
238 245 241 249 268 281 288 287 289 288 284 283 281 279 282 284 287 291 290 289 292 294 292 292 293 289 291 288 286 283 280 280 281 282 284 285 282 283 283 282 281 279 277
250 242 240 252 282 288 283 284 281 280 283 285 282 277 277 279 283 285 285 287 290 291 289 287 288 286 287 287 286 285 285 283 281 281 282 280 282 280 279 278 276 274 273
262 259 249 267 290 290 290 287 278 277 283 287 284 279 279 283 284 279 280 285 284 290 290 287 287 284 283 287 286 285 285 283 281 280 278 277 277 278 281 277 274 276 275
267 267 267 277 285 286 290 288 282 278 283 286 285 285 283 284 284 281 278 286 282 283 285 286 285 280 283 284 283 282 279 275 277 280 280 279 280 282 282 283 284 282 281
281 282 281 276 281 285 287 280 280 277 283 288 287 286 280 282 283 282 278 286 279 282 288 290 288 286 286 289 284 279 274 274 278 276 278 280 286 286 286 284 282 280 284
270 273 271 267 274 276 276 272 268 280 284 288 286 283 279 286 282 280 284 278 279 286 286 286 287 288 291 286 282 276 276 276 281 287 288 286 288 286 283 284 284 289 293
273 274 270 272 274 274 268 264 269 278 284 284 282 280 280 284 280 280 279 276 284 279 279 274 275 282 289 288 281 281 280 283 284 284 283 287 288 290 290 287 289 295 296
275 276 275 273 273 272 269 266 272 277 277 276 279 279 282 282 280 279 274 275 275 271 271 265 266 276 284 288 291 288 279 279 281 283 283 284 287 290 293 296 293 291 287
275 274 272 272 273 274 270 271 271 273 270 271 272 272 271 272 275 273 275 273 275 268 264 268 271 266 270 284 283 277 267 284 287 292 296 292 297 301 296 293 289 290 288
272 271 270 270 271 271 271 271 270 268 265 263 265 263 263 260 264 268 275 273 270 273 272 273 271 272 269 276 286 294 295 297 297 293 293 305 302 296 296 294 291 290 289